Time,TemperatureF,DewpointF,PressureIn,WindDirection,WindDirectionDegrees,WindSpeedMPH,WindSpeedGustMPH,Humidity,HourlyPrecipIn,Conditions,Clouds,dailyrainin,SoftwareType,DateUTC
2013-05-25 00:09:00,56.9,45.0,30.25,East,100,3.0,5.0,65,0.00,,,0.00,weatherlink.com 1.10,2013-05-25 05:09:00,
2013-05-25 00:25:00,58.0,44.0,30.24,SE,141,0.0,7.0,61,0.00,,,0.00,weatherlink.com 1.10,2013-05-25 05:25:00,
2013-05-25 00:40:00,58.0,44.0,30.23,SSE,149,3.0,8.0,61,0.00,,,0.00,weatherlink.com 1.10,2013-05-25 05:40:00,
2013-05-25 00:55:00,58.0,44.0,30.24,SE,132,5.0,8.0,61,0.00,,,0.00,weatherlink.com 1.10,2013-05-25 05:55:00,
2013-05-25 01:10:00,57.6,45.0,30.23,East,96,5.0,8.0,63,0.00,,,0.00,weatherlink.com 1.10,2013-05-25 06:10:00,
2013-05-25 01:25:00,56.9,46.0,30.25,SSE,158,0.0,9.0,67,0.00,,,0.00,weatherlink.com 1.10,2013-05-25 06:25:00,
2013-05-25 01:40:00,55.0,48.0,30.25,NNE,20,1.0,7.0,77,0.00,,,0.00,weatherlink.com 1.10,2013-05-25 06:40:00,
2013-05-25 01:55:00,53.9,48.0,30.27,ESE,121,1.0,2.0,79,0.00,,,0.00,weatherlink.com 1.10,2013-05-25 06:55:00,
2013-05-25 02:10:00,53.1,49.0,30.28,SE,133,1.0,2.0,85,0.03,,,0.03,weatherlink.com 1.10,2013-05-25 07:10:00,
2013-05-25 02:25:00,52.2,49.0,30.27,ENE,75,1.0,2.0,89,0.07,,,0.07,weatherlink.com 1.10,2013-05-25 07:25:00,
2013-05-25 02:40:00,51.6,49.0,30.26,ENE,71,0.0,2.0,91,0.10,,,0.10,weatherlink.com 1.10,2013-05-25 07:40:00,
2013-05-25 02:55:00,50.5,49.0,30.27,ENE,62,4.0,6.0,93,0.13,,,0.13,weatherlink.com 1.10,2013-05-25 07:55:00,
2013-05-25 03:10:00,50.4,48.0,30.25,East,101,4.0,8.0,92,0.11,,,0.15,weatherlink.com 1.10,2013-05-25 08:10:00,
2013-05-25 03:25:00,50.2,49.0,30.25,East,82,2.0,6.0,94,0.08,,,0.15,weatherlink.com 1.10,2013-05-25 08:25:00,
2013-05-25 03:40:00,50.1,48.0,30.25,NE,40,2.0,5.0,93,0.04,,,0.15,weatherlink.com 1.10,2013-05-25 08:40:00,
2013-05-25 03:55:00,49.8,48.0,30.25,ENE,75,1.0,3.0,94,0.02,,,0.15,weatherlink.com 1.10,2013-05-25 08:55:00,
2013-05-25 04:10:00,49.5,48.0,30.27,SW,222,2.0,3.0,94,0.00,,,0.15,weatherlink.com 1.10,2013-05-25 09:10:00,
2013-05-25 04:25:00,49.2,48.0,30.27,WSW,243,0.0,1.0,95,0.00,,,0.15,weatherlink.com 1.10,2013-05-25 09:25:00,
2013-05-25 04:40:00,49.2,48.0,30.26,ESE,110,4.0,5.0,96,0.01,,,0.16,weatherlink.com 1.10,2013-05-25 09:40:00,
2013-05-25 04:55:00,49.2,48.0,30.26,ENE,62,3.0,5.0,95,0.01,,,0.16,weatherlink.com 1.10,2013-05-25 09:55:00,
2013-05-25 05:10:00,49.0,48.0,30.28,SE,135,0.0,4.0,96,0.01,,,0.16,weatherlink.com 1.10,2013-05-25 10:10:00,
2013-05-25 05:25:00,49.0,48.0,30.30,SW,225,2.0,2.0,96,0.01,,,0.16,weatherlink.com 1.10,2013-05-25 10:25:00,
2013-05-25 05:40:00,48.9,48.0,30.31,South,187,0.0,1.0,96,0.00,,,0.16,weatherlink.com 1.10,2013-05-25 10:40:00,
2013-05-25 05:55:00,48.8,48.0,30.30,East,79,1.0,8.0,96,0.00,,,0.16,weatherlink.com 1.10,2013-05-25 10:55:00,
2013-05-25 06:10:00,48.6,47.0,30.31,East,90,4.0,7.0,94,0.01,,,0.17,weatherlink.com 1.10,2013-05-25 11:10:00,
2013-05-25 06:25:00,48.1,46.0,30.31,SSE,155,2.0,8.0,93,0.01,,,0.17,weatherlink.com 1.10,2013-05-25 11:25:00,
2013-05-25 06:40:00,47.8,45.0,30.31,NE,46,3.0,10.0,91,0.01,,,0.17,weatherlink.com 1.10,2013-05-25 11:40:00,
2013-05-25 06:55:00,47.7,45.0,30.31,ENE,68,5.0,9.0,89,0.01,,,0.17,weatherlink.com 1.10,2013-05-25 11:55:00,
2013-05-25 07:10:00,48.0,46.0,30.32,NE,48,1.0,11.0,92,0.00,,,0.17,weatherlink.com 1.10,2013-05-25 12:10:00,
2013-05-25 07:25:00,48.0,46.0,30.32,NNE,24,4.0,7.0,93,0.00,,,0.17,weatherlink.com 1.10,2013-05-25 12:25:00,
2013-05-25 07:40:00,48.3,46.0,30.31,NNE,31,0.0,5.0,93,0.00,,,0.17,weatherlink.com 1.10,2013-05-25 12:40:00,
2013-05-25 07:55:00,48.4,46.0,30.31,ESE,113,1.0,6.0,90,0.00,,,0.17,weatherlink.com 1.10,2013-05-25 12:55:00,
2013-05-25 08:10:00,48.9,46.0,30.30,South,174,0.0,3.0,89,0.00,,,0.17,weatherlink.com 1.10,2013-05-25 13:10:00,
2013-05-25 08:26:00,49.1,46.0,30.31,SE,143,2.0,6.0,89,0.00,,,0.17,weatherlink.com 1.10,2013-05-25 13:26:00,
2013-05-25 08:41:00,49.5,46.0,30.31,NE,55,6.0,7.0,88,0.00,,,0.17,weatherlink.com 1.10,2013-05-25 13:41:00,
2013-05-25 08:56:00,49.6,45.0,30.31,NNE,15,1.0,8.0,83,0.00,,,0.17,weatherlink.com 1.10,2013-05-25 13:56:00,
2013-05-25 09:11:00,49.7,45.0,30.31,NNE,20,2.0,8.0,83,0.00,,,0.17,weatherlink.com 1.10,2013-05-25 14:11:00,
2013-05-25 09:26:00,49.9,45.0,30.31,East,91,1.0,4.0,83,0.00,,,0.17,weatherlink.com 1.10,2013-05-25 14:26:00,
2013-05-25 09:41:00,49.9,44.0,30.32,SE,125,0.0,3.0,80,0.00,,,0.17,weatherlink.com 1.10,2013-05-25 14:41:00,
2013-05-25 09:56:00,50.0,44.0,30.32,SSE,165,0.0,2.0,81,0.00,,,0.17,weatherlink.com 1.10,2013-05-25 14:56:00,
2013-05-25 10:11:00,49.9,46.0,30.33,SW,229,1.0,2.0,85,0.00,,,0.17,weatherlink.com 1.10,2013-05-25 15:11:00,
2013-05-25 10:26:00,49.8,45.0,30.33,SW,217,1.0,2.0,84,0.00,,,0.17,weatherlink.com 1.10,2013-05-25 15:26:00,
2013-05-25 10:41:00,49.7,45.0,30.33,SW,214,1.0,3.0,85,0.00,,,0.17,weatherlink.com 1.10,2013-05-25 15:41:00,
2013-05-25 10:56:00,50.0,45.0,30.33,SSE,153,3.0,4.0,83,0.00,,,0.17,weatherlink.com 1.10,2013-05-25 15:56:00,
2013-05-25 11:11:00,50.2,44.0,30.32,SW,233,0.0,8.0,80,0.00,,,0.17,weatherlink.com 1.10,2013-05-25 16:11:00,
2013-05-25 11:26:00,50.2,44.0,30.32,SE,129,3.0,8.0,80,0.00,,,0.17,weatherlink.com 1.10,2013-05-25 16:26:00,
2013-05-25 11:41:00,50.2,45.0,30.30,SSE,163,5.0,10.0,82,0.00,,,0.17,weatherlink.com 1.10,2013-05-25 16:41:00,
2013-05-25 11:56:00,50.5,45.0,30.27,East,81,4.0,6.0,82,0.00,,,0.17,weatherlink.com 1.10,2013-05-25 16:56:00,
2013-05-25 12:11:00,50.8,45.0,30.25,East,94,3.0,10.0,80,0.00,,,0.17,weatherlink.com 1.10,2013-05-25 17:11:00,
2013-05-25 12:26:00,51.8,44.0,30.22,East,84,5.0,13.0,75,0.00,,,0.17,weatherlink.com 1.10,2013-05-25 17:26:00,
2013-05-25 12:41:00,52.9,44.0,30.25,SE,125,8.0,10.0,73,0.00,,,0.17,weatherlink.com 1.10,2013-05-25 17:41:00,
2013-05-25 12:56:00,53.3,45.0,30.27,SSE,161,0.0,2.0,73,0.00,,,0.17,weatherlink.com 1.10,2013-05-25 17:56:00,
2013-05-25 13:11:00,53.2,45.0,30.28,SW,214,2.0,7.0,73,0.00,,,0.17,weatherlink.com 1.10,2013-05-25 18:11:00,
2013-05-25 13:26:00,52.8,45.0,30.27,SSE,163,3.0,5.0,75,0.00,,,0.17,weatherlink.com 1.10,2013-05-25 18:26:00,
2013-05-25 13:41:00,52.5,47.0,30.27,ENE,77,3.0,4.0,80,0.00,,,0.17,weatherlink.com 1.10,2013-05-25 18:41:00,
2013-05-25 13:56:00,52.4,47.0,30.27,South,191,3.0,5.0,81,0.00,,,0.17,weatherlink.com 1.10,2013-05-25 18:56:00,
2013-05-25 14:11:00,52.2,47.0,30.28,SSW,195,0.0,2.0,83,0.00,,,0.17,weatherlink.com 1.10,2013-05-25 19:11:00,
2013-05-25 14:26:00,51.5,48.0,30.29,SSE,153,0.0,3.0,88,0.01,,,0.18,weatherlink.com 1.10,2013-05-25 19:26:00,
2013-05-25 14:41:00,50.9,48.0,30.30,SW,221,1.0,3.0,88,0.02,,,0.19,weatherlink.com 1.10,2013-05-25 19:41:00,
2013-05-25 14:56:00,50.7,49.0,30.30,SW,219,0.0,2.0,92,0.04,,,0.21,weatherlink.com 1.10,2013-05-25 19:56:00,
2013-05-25 15:11:00,51.3,49.0,30.29,East,91,3.0,3.0,92,0.06,,,0.23,weatherlink.com 1.10,2013-05-25 20:11:00,
2013-05-25 15:26:00,51.3,49.0,30.29,ENE,68,3.0,5.0,92,0.05,,,0.23,weatherlink.com 1.10,2013-05-25 20:26:00,
2013-05-25 15:41:00,51.5,48.0,30.29,SE,127,3.0,4.0,88,0.05,,,0.24,weatherlink.com 1.10,2013-05-25 20:41:00,
2013-05-25 15:56:00,51.2,48.0,30.28,East,88,3.0,5.0,88,0.03,,,0.24,weatherlink.com 1.10,2013-05-25 20:56:00,
2013-05-25 16:11:00,50.8,47.0,30.27,East,89,2.0,5.0,87,0.01,,,0.24,weatherlink.com 1.10,2013-05-25 21:11:00,
2013-05-25 16:26:00,50.8,47.0,30.27,SE,132,2.0,7.0,87,0.01,,,0.24,weatherlink.com 1.10,2013-05-25 21:26:00,
2013-05-25 16:41:00,50.9,47.0,30.27,ESE,105,5.0,6.0,87,0.00,,,0.24,weatherlink.com 1.10,2013-05-25 21:41:00,
2013-05-25 16:56:00,51.2,48.0,30.27,NE,44,2.0,4.0,87,0.00,,,0.24,weatherlink.com 1.10,2013-05-25 21:56:00,
2013-05-25 17:11:00,51.5,47.0,30.27,East,94,2.0,6.0,83,0.00,,,0.24,weatherlink.com 1.10,2013-05-25 22:11:00,
2013-05-25 17:26:00,52.1,48.0,30.27,ENE,77,1.0,5.0,86,0.00,,,0.24,weatherlink.com 1.10,2013-05-25 22:26:00,
2013-05-25 17:41:00,52.0,47.0,30.27,ESE,113,1.0,4.0,84,0.00,,,0.24,weatherlink.com 1.10,2013-05-25 22:41:00,
2013-05-25 17:56:00,52.0,47.0,30.26,ENE,67,1.0,5.0,84,0.00,,,0.24,weatherlink.com 1.10,2013-05-25 22:56:00,
2013-05-25 18:11:00,52.1,48.0,30.27,East,79,1.0,5.0,87,0.00,,,0.24,weatherlink.com 1.10,2013-05-25 23:11:00,
2013-05-25 18:26:00,52.5,49.0,30.26,East,101,3.0,6.0,86,0.00,,,0.24,weatherlink.com 1.10,2013-05-25 23:26:00,
2013-05-25 18:41:00,52.9,49.0,30.26,ESE,105,5.0,5.0,86,0.00,,,0.24,weatherlink.com 1.10,2013-05-25 23:41:00,
2013-05-25 18:56:00,53.1,48.0,30.25,ENE,63,3.0,7.0,84,0.00,,,0.24,weatherlink.com 1.10,2013-05-25 23:56:00,
2013-05-25 19:11:00,53.4,49.0,30.25,ESE,122,2.0,6.0,85,0.00,,,0.24,weatherlink.com 1.10,2013-05-26 00:11:00,
2013-05-25 19:26:00,53.4,49.0,30.25,SSE,148,3.0,4.0,85,0.00,,,0.24,weatherlink.com 1.10,2013-05-26 00:26:00,
2013-05-25 19:41:00,53.4,49.0,30.24,ENE,77,4.0,4.0,86,0.00,,,0.24,weatherlink.com 1.10,2013-05-26 00:41:00,
2013-05-25 19:56:00,53.4,49.0,30.25,East,98,3.0,6.0,84,0.00,,,0.24,weatherlink.com 1.10,2013-05-26 00:56:00,
2013-05-25 20:11:00,53.2,49.0,30.25,ENE,60,5.0,6.0,84,0.00,,,0.24,weatherlink.com 1.10,2013-05-26 01:11:00,
2013-05-25 20:26:00,53.2,48.0,30.25,East,82,3.0,6.0,83,0.00,,,0.24,weatherlink.com 1.10,2013-05-26 01:26:00,
2013-05-25 20:41:00,53.1,48.0,30.24,East,87,1.0,7.0,84,0.00,,,0.24,weatherlink.com 1.10,2013-05-26 01:41:00,
2013-05-25 20:56:00,52.8,47.0,30.25,East,82,4.0,6.0,82,0.00,,,0.24,weatherlink.com 1.10,2013-05-26 01:56:00,
2013-05-25 21:11:00,52.5,47.0,30.25,ENE,72,3.0,6.0,81,0.00,,,0.24,weatherlink.com 1.10,2013-05-26 02:11:00,
2013-05-25 21:26:00,52.2,46.0,30.25,NE,56,5.0,7.0,80,0.00,,,0.24,weatherlink.com 1.10,2013-05-26 02:26:00,
2013-05-25 21:41:00,52.0,46.0,30.25,ENE,76,2.0,7.0,79,0.00,,,0.24,weatherlink.com 1.10,2013-05-26 02:41:00,
2013-05-25 21:56:00,51.0,46.0,30.25,ENE,66,1.0,2.0,84,0.00,,,0.24,weatherlink.com 1.10,2013-05-26 02:56:00,
2013-05-25 22:11:00,50.6,46.0,30.25,East,79,2.0,6.0,83,0.00,,,0.24,weatherlink.com 1.10,2013-05-26 03:11:00,
2013-05-25 22:26:00,49.8,46.0,30.24,NE,53,4.0,6.0,85,0.00,,,0.24,weatherlink.com 1.10,2013-05-26 03:26:00,
2013-05-25 22:41:00,49.9,46.0,30.24,ENE,66,4.0,6.0,85,0.00,,,0.24,weatherlink.com 1.10,2013-05-26 03:41:00,
2013-05-25 22:56:00,49.4,45.0,30.24,East,79,1.0,4.0,85,0.00,,,0.24,weatherlink.com 1.10,2013-05-26 03:56:00,
2013-05-25 23:11:00,48.9,45.0,30.24,East,101,1.0,2.0,86,0.00,,,0.24,weatherlink.com 1.10,2013-05-26 04:11:00,
2013-05-25 23:26:00,48.6,45.0,30.25,East,81,0.0,2.0,87,0.00,,,0.24,weatherlink.com 1.10,2013-05-26 04:26:00,
2013-05-25 23:41:00,47.2,45.0,30.25,ENE,60,0.0,2.0,91,0.00,,,0.24,weatherlink.com 1.10,2013-05-26 04:41:00,
2013-05-25 23:56:00,46.8,45.0,30.24,ENE,74,0.0,1.0,93,0.00,,,0.24,weatherlink.com 1.10,2013-05-26 04:56:00,